{"data":{"norad_id":87725,"intl_designator":"","name":"UNKNOWN","alt_names":[],"object_type":"UNKNOWN","status":"UNKNOWN","operator":null,"country":null,"launch_date":null,"launch_site_code":null,"launch_vehicle":null,"mission":null,"orbit_class":"UNKNOWN","rcs_meters":null,"size_class":null,"mass_kg":null,"dimensions":null,"purposes":[],"wikipedia_slug":null,"has_3d_model":false,"image_url":null,"decayed_at":null,"tle_current":{"epoch":"2026-07-18T21:38:35.880288Z","epoch_age_seconds":5509312,"freshness":"OLD","line1":"1 87725U          26199.90180417  .00155570  00000+0  30464-2 0  9997","line2":"2 87725  82.8552  50.9023 0006740  79.1280 281.0729 15.46795051666969","mean_motion":15.46795051,"eccentricity":0.000674,"inclination_deg":82.8552,"raan_deg":50.9023,"arg_perigee_deg":79.128,"mean_anomaly_deg":281.0729,"bstar":0.0030464,"rev_number":66696,"period_min":93.095720668943,"perigee_km":421.5227098354,"apogee_km":430.69483313536,"semimajor_km":6804.2457714854,"source":"CELESTRAK","updated_at":"2026-08-17T09:00:52.584946Z"}}}